Current Weather Conditions: station 62104

sailwx.info

Wind from 220 at 26 knots

Air temperature 7.6° C
Visibility: greater than 5.4 NM
Dewpoint 5.4° C

Last reported at 2020-Jan-26 01:00 UTC.
Time now 2020-Jan-26 02:56 UTC

Location: N 57°24' E 001°18'.
View on Google Maps.

See reports from other nearby stations

  
Tides and Currents Weather Stations Pressure Air Temp Water Temp Dewpoint Dewpoint Depression Visibility Wind Speed Wind Dir Waves Ship Positions
date/time (UTC)wind fromknots sea level pressurealtimeterstation pressurevisibilityair tempwater tempwave heightnotes
2020-Jan-26 01:00 220 26 5.4 7.6
2020-Jan-26 00:00 220 21 5.4 7.7
2020-Jan-25 23:00 230 21 5.4 8.0
2020-Jan-25 22:00 220 20 10.8 8.3
2020-Jan-25 21:00 230 20 10.8 8.2
2020-Jan-25 20:00 240 20 10.8 8.1
2020-Jan-25 19:00 240 20 10.8 7.9
2020-Jan-25 18:00 230 20 10.8 7.4
2020-Jan-25 17:00 240 20 10.8 7.8
2020-Jan-25 16:00 240 20 5.4 7.5
2020-Jan-25 15:00 240 20 5.4 7.4
2020-Jan-25 14:00 230 25 5.4 7.2
2020-Jan-25 13:00 230 24 10.8 7.2
2020-Jan-25 12:00 230 22 5.4 7.4
2020-Jan-25 11:00 230 22 10.8 7.4
2020-Jan-25 10:00 230 20 5.4 7.6
2020-Jan-25 09:00 230 24 10.8 7.7
2020-Jan-25 08:00 220 21 10.8 7.7
2020-Jan-25 07:00 220 19 5.4 7.8
2020-Jan-25 06:00 220 18 5.4 7.8
2020-Jan-25 05:00 230 13 10.8 8.0
2020-Jan-25 04:00 230 13 10.8 7.9
2020-Jan-25 03:00 230 15 10.8 7.5
2020-Jan-25 02:00 220 13 10.8 7.4
2020-Jan-25 01:00 220 13 10.8 7.4
2020-Jan-25 00:00 230 12 10.8 7.9
2020-Jan-24 23:00 240 11 10.8 7.9
2020-Jan-24 22:00 250 7 10.8 7.9
2020-Jan-24 21:00 260 11 10.8 7.8
2020-Jan-24 20:00 270 9 10.8 7.8
2020-Jan-24 19:00 280 8 10.8 7.4
2020-Jan-24 18:00 290 9 10.8 7.4
2020-Jan-24 17:00 290 11 10.8 7.5
2020-Jan-24 16:00 290 12 10.8 7.8
2020-Jan-24 15:00 290 13 10.8 7.9
2020-Jan-24 14:00 290 13 10.8 8.9
2020-Jan-24 13:00 300 14 10.8 8.5
2020-Jan-24 12:00 290 14 10.8 8.5
2020-Jan-24 11:00 290 13 10.8 8.2
2020-Jan-24 10:00 300 15 10.8 8.3
2020-Jan-24 09:00 300 14 10.8 8.2
2020-Jan-24 08:00 300 13 10.8 8.1
2020-Jan-24 07:00 300 14 10.8 8.2
2020-Jan-24 06:00 300 14 10.8 8.2
2020-Jan-24 05:00 290 8 5.4 8.1
2020-Jan-24 04:00 290 11 5.4 8.1
2020-Jan-24 03:00 290 13 2.2 8.2
2020-Jan-24 02:00 280 13 5.4 8.2